Pacific - Georgia Basin: Past 24 Hour Conditions

 

Vancouver Int'l Airport

06:00 AM PDT 17 April 2014
This table is a summary of hourly weather conditions for the past 24 hours.
Date / Time
(PDT)
Wind(knots) Conditions Visibility(km) Pressure(kPa) Air tempC) Relative humidity(%) Dew pointC)
17 April 2014
6:00 E 6 Light Rain 16 101.0 9 89 8
5:00 SSE 5 Mostly Cloudy 19 101.0 10 87 8
4:00 SE 6 Mostly Cloudy 19 101.0 9 96 9
3:00 SSE 9 Light Rain 16 101.0 10 96 9
2:00 SE 10 Light Rain 16 101.1 10 96 9
1:00 E 11 Light Rain 13 101.1 10 96 9
0:00 E 9 Light Rain 13 101.2 10 97 9
16 April 2014
23:00 ESE 8 Light Rain 16 101.3 10 96 9
22:00 SE 9 Light Rain 13 101.4 10 96 9
21:00 SE 9 Light Rain 16 101.4 10 95 9
20:00 SE 9 gust 16 Light Rainshower 16 101.4 10 92 9
19:00 SE 6 Partly Cloudy 16 101.4 11 86 9
18:00 SE 8 Partly Cloudy 19 101.5 11 88 9
17:00 ESE 11 Light Rainshower 16 101.5 11 90 9
16:00 SE 10 Mostly Cloudy 16 101.6 11 87 9
15:00 SE 11 Mostly Cloudy 16 101.6 11 88 9
14:00 ESE 12 Partly Cloudy 13 101.6 10 90 9
13:00 ESE 10 Light Rain 6 101.7 10 93 9
12:00 SE 11 gust 16 Light Rain 10 101.7 10 92 9
11:00 SE 12 Light Rain 10 101.7 10 94 9
10:00 SE 8 Light Rain 10 101.7 9 93 8
9:00 E 7 Light Rain 13 101.7 9 95 8
8:00 E 8 Light Rain 13 101.7 8 94 7
7:00 E 7 Light Rain 16 101.7 8 93 7
6:00 E 9 Light Rain 13 101.7 8 93 7
 
Map of Pacific - Georgia Basin marine weather areas Tsawwassen Ferry Terminal Sentry Shoal - 46131 Halibut Bank - 46146 La Perouse Bank - 46206 Discovery Island Esquimalt Harbour Kelp Reefs Malahat Race Rocks Lightstation Saturna Island Sheringham Point University of Victoria Victoria Gonzales Victoria Int'l Airport Ballenas Islands Campbell River Airport Comox Airport Entrance Island Fanny Island Nanaimo Airport Sisters Islets Estevan Point Tofino Airport Grief Point Powell River Airport Sechelt Point Atkinson Sand Heads Lightstation Vancouver Harbour Vancouver Int'l Airport West Vancouver Port Alberni Howe Sound - Pam Rocks Squamish Airport